Date String (YYYY-MM-DD hh:mm:ss) UTC,Instrument flags,Ambient pressure (hPa),Sample flow (lpm),Bypass flow (lpm),Sample temperature (°C),Ambient temperature (°C),ASC tube jacket temperature (°C),LED temperature (°C),Box temperature (°C),Sample RH (%),Span deviation,Mass concentration (μg/m³),Mass concentration (μg/m³),Mass concentration (μg/m³)
DateTimeUTC,F1_M11,P_M11,Q1_M11,Q2_M11,T1_M11,T2_M11,T3_M11,T4_M11,T5_M11,U1_M11,ZSPAN_M11,X0_M11,X2_M11,X1_M11
2022-08-04 10:00:00,,0828.5,5.00,0.00,29.9,29.0,00.0,38.7,31.9,28.1,0001.9,0013.21,0008.00,0007.32
2022-08-04 10:01:00,,0828.5,5.00,0.00,29.9,29.0,00.0,38.7,31.9,28.5,0001.8,0013.82,0008.01,0007.35
2022-08-04 10:02:00,,0828.6,5.00,0.00,30.0,29.0,00.0,38.7,32.0,28.3,0001.9,0014.18,0008.06,0007.38
2022-08-04 10:03:00,,0828.6,5.01,0.00,30.0,28.8,00.0,38.7,31.9,28.4,0001.3,0014.95,0008.04,0007.40
2022-08-04 10:04:00,,0828.4,4.99,0.00,29.9,28.0,00.0,38.7,31.7,28.5,0001.6,0015.27,0008.06,0007.42
2022-08-04 10:05:00,,0828.5,5.00,0.00,29.9,27.6,00.0,38.7,31.6,28.5,0001.9,0015.31,0008.05,0007.45
2022-08-04 10:06:00,,0828.5,5.00,0.00,29.8,27.6,00.0,38.6,31.5,28.4,0001.9,0015.18,0008.03,0007.45
2022-08-04 10:07:00,,0828.5,4.99,0.00,29.8,27.6,00.0,38.6,31.5,27.7,0002.0,0014.83,0008.03,0007.45
2022-08-04 10:08:00,,0828.5,5.01,0.00,29.7,27.7,00.0,38.6,31.5,27.2,0001.2,0014.02,0007.99,0007.42
2022-08-04 10:09:00,,0828.5,5.00,0.00,29.7,27.9,00.0,38.6,31.5,27.2,0000.8,0013.73,0007.94,0007.37
2022-08-04 10:10:00,,0828.5,5.00,0.00,29.7,28.0,00.0,38.6,31.5,27.3,0000.7,0013.40,0007.88,0007.33
2022-08-04 10:11:00,,0828.5,5.01,0.00,29.7,28.1,00.0,38.6,31.6,27.3,0001.0,0013.37,0007.88,0007.32
2022-08-04 10:12:00,,0828.5,5.00,0.00,29.7,28.3,00.0,38.6,31.6,27.4,0000.6,0012.82,0007.81,0007.30
2022-08-04 10:13:00,,0828.4,5.00,0.00,29.7,28.4,00.0,38.6,31.6,27.4,0000.4,0012.58,0007.79,0007.29
2022-08-04 10:14:00,,0828.4,5.00,0.00,29.8,28.5,00.0,38.6,31.7,27.4,0000.3,0012.25,0007.79,0007.28
2022-08-04 10:15:00,,0828.4,5.00,0.00,29.8,28.5,00.0,38.6,31.7,27.4,0000.2,0011.99,0007.76,0007.25
2022-08-04 10:16:00,,0828.3,5.00,0.00,29.8,28.6,00.0,38.6,31.7,27.2,-000.2,0011.91,0007.72,0007.22
2022-08-04 10:17:00,,0828.3,4.98,0.00,29.8,28.7,00.0,38.6,31.8,27.1,-000.3,0011.95,0007.71,0007.20
2022-08-04 10:18:00,,0828.3,5.01,0.00,29.8,28.7,00.0,38.6,31.8,27.1,-000.2,0012.00,0007.71,0007.21
2022-08-04 10:19:00,,0828.4,5.00,0.00,29.8,28.8,00.0,38.6,31.8,27.1,-000.0,0012.03,0007.74,0007.22
2022-08-04 10:20:00,,0828.3,5.00,0.00,29.9,28.8,00.0,38.6,31.8,27.0,0000.2,0011.92,0007.75,0007.23
2022-08-04 10:21:00,,0828.4,5.01,0.00,29.9,28.9,00.0,38.7,31.9,27.0,0000.4,0011.93,0007.77,0007.25
2022-08-04 10:22:00,,0828.3,5.00,0.00,29.9,28.9,00.0,38.7,31.9,27.0,0000.4,0011.60,0007.78,0007.25
2022-08-04 10:23:00,,0828.3,5.00,0.00,29.9,29.0,00.0,38.7,31.9,27.1,0000.8,0011.46,0007.83,0007.26
2022-08-04 10:24:00,,0828.3,5.00,0.00,30.0,29.0,00.0,38.7,31.9,27.1,0000.7,0011.35,0007.84,0007.27
2022-08-04 10:25:00,,0828.3,5.00,0.00,30.0,29.0,00.0,38.7,31.9,27.1,0000.5,0010.83,0007.83,0007.27
2022-08-04 10:26:00,,0828.3,4.99,0.00,30.0,28.7,00.0,38.7,31.9,27.2,0000.6,0010.83,0007.85,0007.29
2022-08-04 10:27:00,,0828.3,5.00,0.00,29.9,27.8,00.0,38.7,31.7,27.3,0001.2,0011.00,0007.89,0007.32
2022-08-04 10:28:00,,0828.3,5.00,0.00,29.9,27.2,00.0,38.6,31.5,27.2,0001.4,0010.92,0007.90,0007.32
2022-08-04 10:29:00,,0828.3,5.01,0.00,29.8,27.0,00.0,38.6,31.4,27.3,0001.1,0011.05,0007.90,0007.32
2022-08-04 10:30:00,,0828.2,4.98,0.00,29.7,27.0,00.0,38.5,31.3,27.6,0001.4,0011.13,0007.91,0007.34
2022-08-04 10:31:00,,0828.2,5.01,0.00,29.6,27.1,00.0,38.5,31.2,27.7,0001.3,0011.12,0007.90,0007.35
2022-08-04 10:32:00,,0828.2,4.99,0.00,29.6,27.3,00.0,38.5,31.3,27.7,0001.1,0011.57,0007.88,0007.35
2022-08-04 10:33:00,,0828.2,5.01,0.00,29.5,27.5,00.0,38.5,31.3,27.8,0001.4,0011.96,0007.89,0007.36
2022-08-04 10:34:00,,0828.2,4.99,0.00,29.5,27.6,00.0,38.4,31.3,28.0,0001.1,0012.00,0007.88,0007.37
2022-08-04 10:35:00,,0828.2,4.99,0.00,29.5,27.8,00.0,38.4,31.3,28.3,0001.1,0012.02,0007.89,0007.37
2022-08-04 10:36:00,,0828.3,5.00,0.00,29.5,27.9,00.0,38.4,31.4,28.5,0001.1,0012.15,0007.93,0007.38
2022-08-04 10:37:00,,0828.3,5.00,0.00,29.5,28.0,00.0,38.4,31.4,28.4,0001.0,0012.13,0007.95,0007.38
2022-08-04 10:38:00,,0828.3,5.00,0.00,29.5,28.1,00.0,38.4,31.4,28.2,0000.2,0012.03,0007.93,0007.36
2022-08-04 10:39:00,,0828.3,5.01,0.00,29.5,28.2,00.0,38.4,31.5,28.1,0000.3,0012.11,0007.91,0007.36
2022-08-04 10:40:00,,0828.3,5.00,0.00,29.6,28.3,00.0,38.4,31.5,28.0,0000.4,0011.84,0007.87,0007.36
2022-08-04 10:41:00,,0828.2,5.00,0.00,29.6,28.4,00.0,38.4,31.5,28.1,0000.1,0011.82,0007.88,0007.36
2022-08-04 10:42:00,,0828.2,5.00,0.00,29.6,28.4,00.0,38.4,31.6,28.0,0000.1,0012.35,0007.93,0007.36
2022-08-04 10:43:00,,0828.3,5.00,0.00,29.6,28.5,00.0,38.4,31.6,27.8,0000.1,0012.19,0007.98,0007.38
2022-08-04 10:44:00,,0828.3,4.99,0.00,29.7,28.6,00.0,38.5,31.6,27.8,-000.2,0011.83,0008.00,0007.40
2022-08-04 10:45:00,,0828.3,5.01,0.00,29.7,28.6,00.0,38.5,31.6,27.5,0000.1,0011.88,0008.02,0007.41
2022-08-04 10:46:00,,0828.3,5.00,0.00,29.7,28.7,00.0,38.5,31.7,27.4,0000.5,0012.01,0008.05,0007.42
2022-08-04 10:47:00,,0828.3,5.00,0.00,29.7,28.7,00.0,38.5,31.7,27.3,0001.0,0012.47,0008.03,0007.43
2022-08-04 10:48:00,,0828.3,5.00,0.00,29.8,28.8,00.0,38.5,31.7,27.2,0001.2,0012.60,0008.04,0007.42
2022-08-04 10:49:00,,0828.3,5.00,0.00,29.8,28.8,00.0,38.5,31.7,27.2,0001.7,0012.70,0008.08,0007.44
2022-08-04 10:50:00,,0828.3,5.01,0.00,29.8,28.8,00.0,38.6,31.8,27.2,0001.7,0012.85,0008.10,0007.45
2022-08-04 10:51:00,,0828.3,4.99,0.00,29.8,28.9,00.0,38.6,31.8,27.2,0001.7,0013.65,0008.21,0007.47
2022-08-04 10:52:00,,0828.3,5.00,0.00,29.9,28.9,00.0,38.6,31.9,27.2,0001.9,0014.06,0008.24,0007.49
2022-08-04 10:53:00,,0828.3,5.00,0.00,29.9,29.0,00.0,38.6,31.9,27.1,0001.8,0013.80,0008.31,0007.53
2022-08-04 10:54:00,,0828.3,5.00,0.00,29.9,29.0,00.0,38.6,31.9,27.1,0002.0,0013.67,0008.38,0007.56
2022-08-04 10:55:00,,0828.3,5.00,0.00,29.9,29.0,00.0,38.7,31.9,27.1,0002.3,0013.69,0008.38,0007.57
2022-08-04 10:56:00,,0828.3,5.00,0.00,30.0,29.0,00.0,38.7,31.9,27.0,0002.4,0014.04,0008.40,0007.57
2022-08-04 10:57:00,,0828.3,5.00,0.00,30.0,29.1,00.0,38.7,32.0,27.0,0002.5,0014.19,0008.41,0007.59
2022-08-04 10:58:00,,0828.4,4.99,0.00,30.0,29.1,00.0,38.7,32.0,27.0,0002.0,0013.83,0008.46,0007.60
2022-08-04 10:59:00,,0828.4,4.99,0.00,30.0,29.1,00.0,38.7,32.0,27.0,0002.0,0014.87,0008.50,0007.63
